Weather History for Danville, VA

Change the Weather History Date:

Monday, January 30, 2012

  Actual Average Record
Temperature  
Mean Temperature 42 °F 38 °F  
Max Temperature 57 °F 47 °F 80 °F (2002)
Min Temperature 26 °F 30 °F 0 °F (2014)
Degree Days  
Heating Degree Days 23 27  
Month to date heating degree days 720 821  
Since 1 July heating degree days 2081 2303  
Cooling Degree Days 0 0  
Month to date cooling degree days 0 0  
Year to date cooling degree days 0 0  
Moisture  
Dew Point 19 °F    
Average Humidity 46    
Maximum Humidity 68    
Minimum Humidity 23    
Precipitation  
Precipitation 0.00 in 0.12 in 0.96 in (1970)
Month to date precipitation 1.99 3.29  
Year to date precipitation 1.99 3.29  
Snow  
Snow 0.00 in - - ()
Month to date snowfall 0.0  
Since 1 July snowfall 0.0  
Snow Depth 0.00 in    
Sea Level Pressure  
Sea Level Pressure 30.32 in    
Wind  
Wind Speed 5 mph (SW)    
Max Wind Speed 15 mph    
Max Gust Speed 20 mph    
Visibility 10 miles    
Events      
T = Trace of Precipitation, MM = Missing Value Source: NWS Daily Summary

Daily Weather History Graph

Daily Weather History Graph

Search for Another Location

Airport:

Trip Planner

Search our weather history database for the weather conditions in past years. The results will help you decide how hot, cold, wet, or windy it might be!

Date:

Astronomy

Jan. 30, 2012 Rise Set
Actual Time 7:20 AM EST 5:40 PM EST
Civil Twilight 6:53 AM EST 6:07 PM EST
Nautical Twilight 6:22 AM EST 6:38 PM EST
Astronomical Twilight 5:52 AM EST 7:09 PM EST
Moon 10:56 AM EST (1/30) 12:09 AM EST (1/30)
Length of Visible Light 11h 14m
Length of Day
10h 19m
Waxing Crescent, 46% of the Moon is Illuminated
Jan 30
Waxing Crescent
Jan 30
First Quarter
Feb 7
Full
Feb 14
Last Quarter
Feb 21
New

Hourly Weather History & Observations

Time (EST) Temp. Windchill Dew Point Humidity Pressure Visibility Wind Dir Wind Speed Gust Speed Precip Events Conditions
12:53 AM 37.9 °F 31.5 °F 15.1 °F 39% 30.22 in 10.0 mi WSW 9.2 mph - N/A   Clear
1:53 AM 39.9 °F 34.5 °F 15.1 °F 36% 30.24 in 10.0 mi WSW 8.1 mph - N/A   Clear
2:53 AM 33.1 °F 28.7 °F 15.1 °F 48% 30.26 in 10.0 mi SW 4.6 mph - N/A   Clear
3:53 AM 32.0 °F 26.4 °F 16.0 °F 52% 30.26 in 10.0 mi WSW 5.8 mph - N/A   Clear
4:53 AM 30.9 °F 27.5 °F 16.0 °F 54% 30.29 in 10.0 mi West 3.5 mph - N/A   Clear
5:53 AM 28.0 °F - 17.1 °F 63% 30.32 in 10.0 mi Calm Calm - N/A   Clear
6:53 AM 28.0 °F - 17.1 °F 63% 30.35 in 10.0 mi Calm Calm - N/A   Clear
7:53 AM 27.0 °F - 18.0 °F 69% 30.38 in 10.0 mi Calm Calm - N/A   Clear
8:53 AM 39.2 °F - 21.2 °F 49% 30.39 in 10.0 mi Calm Calm - N/A   Clear
10:53 AM 46.9 °F - 19.9 °F 34% 30.41 in 10.0 mi West 4.6 mph - N/A   Clear
11:53 AM 50.0 °F - 19.4 °F 30% 30.40 in 10.0 mi West 9.2 mph 17.3 mph N/A   Clear
12:53 PM 53.1 °F - 19.9 °F 27% 30.35 in 10.0 mi WNW 10.4 mph - N/A   Clear
1:53 PM 55.4 °F - 21.2 °F 26% 30.33 in 10.0 mi SW 8.1 mph - N/A   Clear
2:53 PM 55.9 °F - 21.0 °F 26% 30.30 in 10.0 mi SW 8.1 mph 16.1 mph N/A   Clear
3:53 PM 57.0 °F - 19.9 °F 24% 30.29 in 10.0 mi SW 9.2 mph - N/A   Clear
4:53 PM 55.0 °F - 19.9 °F 25% 30.30 in 10.0 mi SW 9.2 mph - N/A   Clear
5:53 PM 48.9 °F - 21.0 °F 33% 30.30 in 10.0 mi South 4.6 mph - N/A   Clear
6:53 PM 46.9 °F - 21.0 °F 36% 30.32 in 10.0 mi South 3.5 mph - N/A   Clear
7:53 PM 42.1 °F - 24.1 °F 49% 30.33 in 10.0 mi Calm Calm - N/A   Clear
8:53 PM 39.9 °F 36.7 °F 21.9 °F 49% 30.32 in 10.0 mi South 4.6 mph - N/A   Clear
9:53 PM 42.1 °F 40.2 °F 21.0 °F 43% 30.32 in 10.0 mi SSW 3.5 mph - N/A   Clear
10:53 PM 41.0 °F 38.0 °F 21.9 °F 47% 30.32 in 10.0 mi SSW 4.6 mph - N/A   Clear
11:53 PM 42.8 °F 38.6 °F 21.2 °F 42% 30.33 in 10.0 mi SSW 6.9 mph - N/A   Clear